Вернуться в каталог

STARLINK-35154

АктивенСвязьSSO
NORAD 65612·PAYLOAD·🇺🇸 United States

Запущен Sep 13, 2025 с Cape Canaveral Space Force Station

Loading…

Ближайшие Пролёты (ближайшие 24 часа)

TLE

СвежийSource: CelesTrak SupGP

Эпоха: Sep 14, 2026, 21:19 UTC

1 65612C 25207W   26257.88868056 -.00031695  00000+0 -19274-2 0  2574
2 65612  97.2845 320.6126 0001732  93.5439 328.6958 15.10555524    18

Отслеживайте STARLINK-35154 в реальном времени с AllMySat

Download on the App Store